Regional Weather Roundup
Issued by NWS

Home | Current Version | Previous Version | Graphics & Text | Print | Product List | Glossary On
Versions: 1 2 3 4 5 6 7 8 9 10 11 12 13 14 15 16 17 18 19 20 21 22 23 24 25 26 27 28 29 30 31 32 33 34 35 36 37 38 39 40 41 42 43 44 45 46 47 48 49 50
000
ASUS43 KIND 251859
RWRIN

WEATHER ROUNDUP FOR INDIANA
NATIONAL WEATHER SERVICE INDIANAPOLIS IN
300 PM EDT TUE APR 25 2017

NOTE: "FAIR" INDICATES FEW OR NO CLOUDS BELOW 12,000 FEET WITH NO
SIGNIFICANT WEATHER AND/OR OBSTRUCTIONS TO VISIBILITY.

* - STATION DOES NOT REPORT WEATHER SUCH AS PRECIPITATION OR FOG.

+ - STATION NOT QUALITY CONTROLLED BY THE NATIONAL WEATHER SERVICE.
    USE DATA WITH CAUTION...ESPECIALLY DEWPOINT AND RELATIVE
    HUMIDITY OBSERVATIONS.

INZ001>003-010>013-019-020-252000-
NORTHWEST INDIANA

CITY           SKY/WX    TMP DP  RH WIND       PRES   REMARKS
GARY /AIRPORT/ PTSUNNY   79  41  25 S14G24    29.66F
KNOX *+        MOSUNNY   73  27  17 SE10G20   29.69F
MONTICELLO +   SUNNY     74  49  41 S8        29.68F

$$

LMZ046-743>745-252000-
SOUTHERN LAKE MICHIGAN

STATION/POSITION TIME  TEMP    WIND        PRES    WAVE
                       AIR SEA DIR/SP/G            HT
                 (UTC) (F)     (DEG/KT/KT) (MB)    (FT)
BURNS HARBOR     1840   76     170/ 10/ 15 1005.1F
MICHIGAN CITY    1830   72     120/ 11/ 13   N/A

$$

INZ004-005-014>016-021>024-252000-
NORTH CENTRAL INDIANA

CITY           SKY/WX    TMP DP  RH WIND       PRES   REMARKS
ELKHART        PTSUNNY   72  54  53 SE14      29.71F
GOSHEN         MOSUNNY   71  53  52 SE8       29.72F
SOUTH BEND     PTSUNNY   71  54  54 SE12G18   29.71F
WARSAW +       PTSUNNY   70  54  56 SE8       29.72F

$$

INZ006>009-017-018-025>027-252000-
NORTHEAST INDIANA

CITY           SKY/WX    TMP DP  RH WIND       PRES   REMARKS
ANGOLA *+      MOSUNNY   72  55  56 S12       29.74F
FORT WAYNE     CLOUDY    73  55  53 S12       29.73F
KENDALLVILLE + CLOUDY    70  55  59 S6G16     29.74F

$$

INZ028-029-035-036-043>045-051>053-252000-
WEST CENTRAL INDIANA

CITY           SKY/WX    TMP DP  RH WIND       PRES   REMARKS
CRAWFORDSVL +  MOSUNNY   73  53  49 SE10      29.69F
GREENCASTLE +  SUNNY     73  54  49 SE8       29.70F
LAFAYETTE      MOSUNNY   75  54  47 VRB7      29.68F
TERRE HAUTE    SUNNY     76  54  46 S14G22    29.68F

$$

INZ030>032-037>040-046>048-054>057-064-065-252000-
CENTRAL INDIANA

CITY           SKY/WX    TMP DP  RH WIND       PRES   REMARKS
FRANKFORT +    MOSUNNY   78  54  44 S7        29.72F
INDIANAPOLIS   PTSUNNY   73  55  53 VRB5      29.71F
-EAGLE CREEK   SUNNY     73  53  49 VRB3      29.70F
KOKOMO +       MOSUNNY   73  55  53 SE8       29.72F
SHELBYVILLE    MOSUNNY   75  53  46 SE9       29.72F

$$

INZ033-034-041-042-049-050-058-059-252000-
EAST CENTRAL INDIANA

CITY           SKY/WX    TMP DP  RH WIND       PRES   REMARKS
MUNCIE         SUNNY     74  54  49 S9        29.72F
RICHMOND +     SUNNY     70  54  56 SE9       29.75F

$$

INZ060-061-067>069-081>083-085>088-252000-
SOUTHWEST INDIANA

CITY           SKY/WX    TMP DP  RH WIND       PRES   REMARKS
EVANSVILLE     SUNNY     77  55  46 S9G17     29.71F
HUNTINGBURG *+ PTSUNNY   75  58  55 S12       29.72F

$$

INZ062-063-066-070>080-084-089>092-252000-
SOUTH CENTRAL AND SOUTHEAST INDIANA

CITY           SKY/WX    TMP DP  RH WIND       PRES   REMARKS
BLOOMINGTON    SUNNY     75  53  46 SE6       29.71F
MADISON *+     MOSUNNY   73  52  46 CALM      29.76F
SEYMOUR +      MOSUNNY   73  54  49 S8        29.73

$$





USA.gov is the U.S. government's official web portal to all federal, state and local government web resources and services.